CZ-3B DEB, 40845

Orbit data source: Space-Track

CZ-3B DEB, 40845 is space debris in HEO originally from a launch on Mon, 19 Dec 2011 UTC launched from the Xichang Space Center, China (XSC). Debris objects in space refer to the collection of defunct objects orbiting the Earth. Examples of debris include non-operational satellites, rocket bodies, and fragments generated from explosions, collisions, or faulty payload assembly.

Loading next visibility...
Identifier
40845, 2011-077AA
Orbit
HEO
Last TLE update
2 months ago
Origin
Manufacturer
CALT
Mission
Spacecraft
Bus & Motor
Unknown
Mass
Unknown
Launch date (UTC)
2011-12-19 (13 years ago)
Launch vehicle
Unknown
Launch site
Xichang Space Center, China (XSC)
Object type
Payload
Rocket body
Debris
Shape & HBR
Unknown
Radar Cross Section
Medium (>0.1 m² and <1 m²)

Expand to show TLE details & history

TLE from 2 months ago
0 CZ-3B DEB
1 40845U 11077AA  25066.83419822  .00002005  00000-0  50101-2 0  9999
2 40845  22.2921 293.1692 7431556 275.2743  11.8904  2.01852704 82725
Epoch: 2025-03-07T20:01Z
Definitive object data (Epoch: 2025-03-07T20:01:14.726Z)
Latitude
0.00064°
Longitude
-172.84973°
Altitude
4,741.297 km
Speed
7.524 km/s
True Right ascension
19h 33m 00s
True Declination
0° 00' 02"
Sunlit
Object was in daylight at TLE epoch
Visualization TLE readout
Latitude
11.42258°
Longitude
-163.73311°
Altitude
4,144.566 km
Speed
7.79 km/s
Apparent Right ascension
21h 43m 33s
Apparent Declination
-9° 21' 14"
Sunlit
Object is in daylight
Visualization observer readout
Local Sidereal Time
13:32:19
Azimuth
75.244° E
Elevation
-30.956°
Doppler factor
1
Orbital elements
Apogee altitude
39,730.979 km
Perigee altitude
415.788 km
Semi-major axis
26,451.521 km
Eccentricity
0.7431556
Inclination
22.2921°
RAAN
293.1692°
Arg. of periapsis
275.2743°
True anomaly
84.19327°
Mean anomaly
11.8904°
Eccentric anomaly
38.25293°
Mean motion
0.50451 °/min
BSTAR
0.0050101
Orbital period
713.57 mins
Loading maneuver chart data...
Loading SW <> Apogee altitude chart data...
Loading historical data...
Loading historical data...
Loading historical data...
Loading historical data...
Loading historical data...
Loading historical data...
Loading historical data...

CZ-3B DEB Visibility forecast

Observer location: undefined°, undefined°

Span
Click to sort rows by Start time (UTC) header in descending order
Start Az.
Max El. time (UTC)
Max El. Az.
Max El.
End time (UTC)
End Az.
439 mins2025-05-09 17:33:39.366Z264.493° W2025-05-09 19:15:39.366Z250.418° W36.092°2025-05-10 00:52:39.366Z270.564° WNW
|